| time (UTC) | temp F | wind direction | speed MPH | gust MPH | rain 1hr in | rain 24hr in | rain mn in | humidity % | barometer mb |
| 20260504070241 | 33 | 284 | 0.0 | 0.0 | 0.00 | 0.00 | 0.00 | 83 | 1006.3 |
| 20260504060202 | 32 | 284 | 0.0 | 0.0 | 0.00 | 0.00 | 0.00 | 84 | 1005.9 |
| 20260504050629 | 31 | 284 | 0.0 | 0.0 | 0.00 | 0.00 | 0.00 | 86 | 1006.1 |
| 20260504050126 | 31 | 284 | 0.0 | 0.0 | 0.00 | 0.00 | 0.00 | 86 | 1006.2 |
| 20260504045624 | 31 | 284 | 0.0 | 0.0 | 0.00 | 0.00 | 0.00 | 85 | 1006.3 |
| 20260504045118 | 31 | 284 | 0.0 | 0.0 | 0.00 | 0.00 | 0.00 | 85 | 1006.2 |
| 20260504044616 | 31 | 284 | 0.0 | 0.0 | 0.00 | 0.00 | 0.00 | 85 | 1006.0 |
| 20260504044113 | 32 | 284 | 0.0 | 0.0 | 0.00 | 0.00 | 0.00 | 84 | 1006.1 |
| 20260504043610 | 32 | 284 | 0.0 | 0.0 | 0.00 | 0.00 | 0.00 | 84 | 1006.1 |
| 20260504043107 | 32 | 284 | 0.0 | 0.0 | 0.00 | 0.00 | 0.00 | 84 | 1006.1 |
| 20260504042604 | 32 | 284 | 0.0 | 0.0 | 0.00 | 0.00 | 0.00 | 83 | 1006.1 |
| 20260504042101 | 32 | 284 | 0.0 | 0.0 | 0.00 | 0.00 | 0.00 | 83 | 1005.9 |
| 20260504041557 | 33 | 284 | 0.0 | 0.0 | 0.00 | 0.00 | 0.00 | 82 | 1006.0 |
| 20260504041053 | 33 | 284 | 0.0 | 0.0 | 0.00 | 0.00 | 0.00 | 82 | 1006.0 |
| 20260504040551 | 33 | 284 | 0.0 | 0.0 | 0.00 | 0.00 | 0.00 | 82 | 1006.0 |
| 20260504040047 | 33 | 284 | 0.0 | 0.0 | 0.00 | 0.00 | 0.00 | 82 | 1006.1 |
| 20260504035544 | 33 | 284 | 0.0 | 0.0 | 0.00 | 0.00 | 0.00 | 82 | 1006.0 |
| 20260504035040 | 33 | 284 | 0.0 | 0.0 | 0.00 | 0.00 | 0.00 | 81 | 1006.0 |
| 20260504034539 | 34 | 284 | 0.0 | 0.0 | 0.00 | 0.00 | 0.00 | 80 | 1005.8 |
| 20260504034035 | 34 | 284 | 0.0 | 0.0 | 0.00 | 0.00 | 0.00 | 79 | 1005.5 |
| 20260504033533 | 34 | 284 | 0.0 | 0.0 | 0.00 | 0.00 | 0.00 | 79 | 1005.8 |
| 20260504033030 | 34 | 284 | 0.0 | 0.0 | 0.00 | 0.00 | 0.00 | 79 | 1005.7 |
| 20260504032527 | 34 | 284 | 0.0 | 0.0 | 0.00 | 0.00 | 0.00 | 79 | 1005.8 |
| 20260504032024 | 34 | 284 | 0.0 | 0.0 | 0.00 | 0.00 | 0.00 | 79 | 1005.8 |
| 20260504031521 | 34 | 284 | 0.0 | 0.0 | 0.00 | 0.00 | 0.00 | 78 | 1005.8 |
| 20260504031017 | 34 | 284 | 0.0 | 0.0 | 0.00 | 0.00 | 0.00 | 79 | 1005.9 |
| 20260504030515 | 34 | 284 | 0.0 | 0.0 | 0.00 | 0.00 | 0.00 | 79 | 1005.7 |
| 20260504030010 | 34 | 284 | 0.0 | 0.0 | 0.00 | 0.00 | 0.00 | 80 | 1005.6 |
| 20260504025508 | 34 | 284 | 0.0 | 0.0 | 0.00 | 0.00 | 0.00 | 81 | 1005.7 |
| 20260504025005 | 34 | 284 | 0.0 | 0.0 | 0.00 | 0.00 | 0.00 | 80 | 1005.8 |
| 20260504024502 | 33 | 284 | 0.0 | 0.0 | 0.00 | 0.00 | 0.00 | 81 | 1005.7 |
| 20260504023959 | 33 | 284 | 0.0 | 0.0 | 0.00 | 0.00 | 0.00 | 81 | 1005.8 |
| 20260504023455 | 33 | 284 | 0.0 | 0.0 | 0.00 | 0.00 | 0.00 | 81 | 1005.9 |
| 20260504022950 | 33 | 284 | 0.0 | 0.0 | 0.00 | 0.00 | 0.00 | 81 | 1005.8 |
| 20260504022447 | 33 | 284 | 0.0 | 0.0 | 0.00 | 0.00 | 0.00 | 82 | 1005.9 |
| 20260504021944 | 33 | 284 | 0.0 | 0.0 | 0.00 | 0.00 | 0.00 | 82 | 1005.9 |
| 20260504021441 | 33 | 284 | 0.0 | 0.0 | 0.00 | 0.00 | 0.00 | 82 | 1005.8 |
| 20260504020938 | 34 | 284 | 0.0 | 0.0 | 0.00 | 0.00 | 0.00 | 82 | 1006.0 |
| 20260504020434 | 34 | 284 | 0.0 | 0.0 | 0.00 | 0.00 | 0.00 | 81 | 1005.7 |
| 20260504015931 | 34 | 284 | 0.0 | 0.0 | 0.00 | 0.00 | 0.00 | 80 | 1005.9 |
| 20260504015427 | 34 | 284 | 0.0 | 0.0 | 0.00 | 0.00 | 0.00 | 80 | 1005.8 |
| 20260504014923 | 34 | 284 | 0.0 | 0.0 | 0.00 | 0.00 | 0.00 | 79 | 1005.7 |
| 20260504014420 | 34 | 284 | 0.0 | 0.0 | 0.00 | 0.00 | 0.00 | 79 | 1005.7 |
| 20260504013916 | 35 | 284 | 0.0 | 0.0 | 0.00 | 0.00 | 0.00 | 79 | 1005.8 |
| 20260504013415 | 35 | 284 | 0.0 | 0.0 | 0.00 | 0.00 | 0.00 | 78 | 1005.7 |
| 20260504012911 | 35 | 284 | 0.0 | 0.0 | 0.00 | 0.00 | 0.00 | 77 | 1005.7 |
| 20260504012409 | 35 | 284 | 0.0 | 0.0 | 0.00 | 0.00 | 0.00 | 77 | 1005.7 |
| 20260504011906 | 36 | 284 | 0.0 | 0.0 | 0.00 | 0.00 | 0.00 | 77 | 1005.6 |
| 20260504011403 | 36 | 284 | 0.0 | 0.0 | 0.00 | 0.00 | 0.00 | 76 | 1005.5 |
| 20260504010859 | 36 | 284 | 0.0 | 0.0 | 0.00 | 0.00 | 0.00 | 76 | 1005.6 |
| 20260504010354 | 36 | 284 | 0.0 | 0.0 | 0.00 | 0.00 | 0.00 | 75 | 1005.7 |
| 20260504005845 | 37 | 284 | 0.0 | 0.0 | 0.00 | 0.00 | 0.00 | 75 | 1005.3 |
| 20260504005342 | 37 | 284 | 0.0 | 0.0 | 0.00 | 0.00 | 0.00 | 74 | 1005.3 |
| 20260504004840 | 37 | 284 | 0.0 | 0.0 | 0.00 | 0.00 | 0.00 | 74 | 1005.4 |
| 20260504004337 | 37 | 284 | 0.0 | 0.0 | 0.00 | 0.00 | 0.00 | 73 | 1005.2 |
| 20260504003833 | 38 | 284 | 0.0 | 0.0 | 0.00 | 0.00 | 0.00 | 72 | 1005.1 |
| 20260504003330 | 38 | 284 | 0.0 | 0.0 | 0.00 | 0.00 | 0.00 | 71 | 1005.2 |
| 20260504002827 | 39 | 284 | 0.0 | 0.0 | 0.00 | 0.00 | 0.00 | 70 | 1005.1 |
| 20260504002324 | 39 | 284 | 0.0 | 0.0 | 0.00 | 0.00 | 0.00 | 68 | 1005.1 |
| 20260504001822 | 40 | 284 | 0.0 | 0.0 | 0.00 | 0.00 | 0.00 | 68 | 1005.1 |
| 20260504001319 | 40 | 284 | 0.0 | 0.0 | 0.00 | 0.00 | 0.00 | 67 | 1005.0 |
| 20260504000815 | 41 | 284 | 0.0 | 0.0 | 0.00 | 0.00 | 0.00 | 64 | 1004.7 |
| 20260504000312 | 42 | 284 | 0.0 | 0.0 | 0.00 | 0.00 | 0.00 | 62 | 1004.7 |
| 20260503235810 | 44 | 284 | 0.0 | 0.0 | 0.00 | 0.00 | 0.00 | 58 | 1004.6 |
| 20260503235308 | 44 | 284 | 0.0 | 0.0 | 0.00 | 0.00 | 0.00 | 54 | 1004.7 |
| 20260503234805 | 44 | 284 | 0.0 | 1.0 | 0.00 | 0.00 | 0.00 | 54 | 1004.5 |
| 20260503234303 | 45 | 284 | 0.0 | 0.0 | 0.00 | 0.00 | 0.00 | 56 | 1004.5 |
| 20260503233800 | 45 | 284 | 0.0 | 0.0 | 0.00 | 0.00 | 0.00 | 50 | 1004.6 |
| 20260503233255 | 46 | 284 | 0.0 | 1.0 | 0.00 | 0.00 | 0.00 | 48 | 1004.5 |
| 20260503232753 | 46 | 284 | 0.0 | 4.0 | 0.00 | 0.00 | 0.00 | 46 | 1004.0 |
| 20260503232250 | 46 | 284 | 1.0 | 3.0 | 0.00 | 0.00 | 0.00 | 45 | 1004.1 |
| 20260503231748 | 46 | 284 | 1.0 | 2.0 | 0.00 | 0.00 | 0.00 | 46 | 1004.1 |
| 20260503231245 | 46 | 284 | 0.0 | 0.0 | 0.00 | 0.00 | 0.00 | 45 | 1004.2 |
| 20260503230740 | 47 | 284 | 2.0 | 4.0 | 0.00 | 0.00 | 0.00 | 44 | 1004.0 |
| 20260503230237 | 47 | 284 | 0.0 | 3.0 | 0.00 | 0.00 | 0.00 | 45 | 1003.9 |
| 20260503225730 | 47 | 284 | 2.0 | 3.0 | 0.00 | 0.00 | 0.00 | 43 | 1003.9 |
| 20260503225229 | 48 | 284 | 3.0 | 4.0 | 0.00 | 0.00 | 0.00 | 44 | 1003.7 |
| 20260503224727 | 48 | 284 | 0.0 | 3.0 | 0.00 | 0.00 | 0.00 | 44 | 1003.7 |
| 20260503224224 | 48 | 284 | 0.0 | 0.0 | 0.00 | 0.00 | 0.00 | 46 | 1003.6 |
| 20260503223722 | 48 | 284 | 1.0 | 4.0 | 0.00 | 0.00 | 0.00 | 44 | 1003.7 |
| 20260503223219 | 48 | 284 | 0.0 | 1.0 | 0.00 | 0.00 | 0.00 | 43 | 1003.9 |
| 20260503222715 | 48 | 284 | 0.0 | 4.0 | 0.00 | 0.00 | 0.00 | 43 | 1003.6 |
| 20260503222214 | 48 | 284 | 2.0 | 7.0 | 0.00 | 0.00 | 0.00 | 42 | 1003.4 |
| 20260503221712 | 49 | 284 | 2.0 | 6.0 | 0.00 | 0.00 | 0.00 | 42 | 1003.5 |
| 20260503221209 | 49 | 284 | 1.0 | 6.0 | 0.00 | 0.00 | 0.00 | 43 | 1003.4 |
| 20260503220705 | 49 | 284 | 1.0 | 6.0 | 0.00 | 0.00 | 0.00 | 43 | 1003.4 |
| 20260503220202 | 49 | 284 | 1.0 | 6.0 | 0.00 | 0.00 | 0.00 | 43 | 1003.3 |
| 20260503215659 | 49 | 284 | 2.0 | 8.0 | 0.00 | 0.00 | 0.00 | 40 | 1003.1 |
| 20260503215156 | 49 | 284 | 4.0 | 6.0 | 0.00 | 0.00 | 0.00 | 42 | 1003.1 |
| 20260503214654 | 49 | 284 | 1.0 | 7.0 | 0.00 | 0.00 | 0.00 | 40 | 1003.1 |
| 20260503214149 | 49 | 284 | 5.0 | 8.0 | 0.00 | 0.00 | 0.00 | 40 | 1003.2 |
| 20260503213644 | 49 | 284 | 0.0 | 2.0 | 0.00 | 0.00 | 0.00 | 44 | 1003.0 |
| 20260503213140 | 49 | 284 | 0.0 | 3.0 | 0.00 | 0.00 | 0.00 | 41 | 1003.0 |
| 20260503212637 | 49 | 284 | 3.0 | 4.0 | 0.00 | 0.00 | 0.00 | 42 | 1002.8 |
| 20260503212135 | 50 | 284 | 1.0 | 4.0 | 0.00 | 0.00 | 0.00 | 42 | 1002.9 |
| 20260503211632 | 49 | 284 | 0.0 | 2.0 | 0.00 | 0.00 | 0.00 | 44 | 1002.8 |
| 20260503211127 | 49 | 284 | 0.0 | 4.0 | 0.00 | 0.00 | 0.00 | 43 | 1003.1 |
| 20260503210624 | 49 | 284 | 0.0 | 4.0 | 0.00 | 0.00 | 0.00 | 44 | 1002.7 |
| 20260503210121 | 50 | 284 | 3.0 | 6.0 | 0.00 | 0.00 | 0.00 | 44 | 1002.9 |
| 20260503205616 | 49 | 284 | 0.0 | 2.0 | 0.00 | 0.00 | 0.00 | 47 | 1002.6 |
| 20260503205113 | 50 | 284 | 1.0 | 2.0 | 0.00 | 0.00 | 0.00 | 46 | 1002.8 |
| 20260503204610 | 50 | 284 | 0.0 | 3.0 | 0.00 | 0.00 | 0.00 | 45 | 1002.6 |
| 20260503204108 | 50 | 284 | 2.0 | 6.0 | 0.00 | 0.00 | 0.00 | 44 | 1002.6 |
| 20260503203604 | 50 | 284 | 0.0 | 3.0 | 0.00 | 0.00 | 0.00 | 45 | 1002.4 |
| 20260503203102 | 50 | 284 | 2.0 | 4.0 | 0.00 | 0.00 | 0.00 | 43 | 1002.9 |
| 20260503202559 | 50 | 284 | 0.0 | 0.0 | 0.00 | 0.00 | 0.00 | 43 | 1002.7 |
| 20260503202057 | 50 | 284 | 0.0 | 1.0 | 0.00 | 0.00 | 0.00 | 44 | 1002.7 |
| 20260503201555 | 50 | 284 | 0.0 | 0.0 | 0.00 | 0.00 | 0.00 | 46 | 1002.8 |
| 20260503201051 | 50 | 284 | 1.0 | 4.0 | 0.00 | 0.00 | 0.00 | 45 | 1002.7 |
| 20260503200547 | 51 | 284 | 0.0 | 4.0 | 0.00 | 0.00 | 0.00 | 44 | 1002.7 |
| 20260503200044 | 51 | 284 | 1.0 | 1.0 | 0.00 | 0.00 | 0.00 | 44 | 1002.6 |
| 20260503195541 | 51 | 284 | 1.0 | 4.0 | 0.00 | 0.00 | 0.00 | 44 | 1002.6 |
| 20260503195038 | 51 | 284 | 0.0 | 7.0 | 0.00 | 0.00 | 0.00 | 43 | 1002.8 |
| 20260503194536 | 50 | 284 | 1.0 | 2.0 | 0.00 | 0.00 | 0.00 | 43 | 1002.6 |
| 20260503194035 | 51 | 284 | 1.0 | 4.0 | 0.00 | 0.00 | 0.00 | 44 | 1002.9 |
| 20260503193533 | 50 | 284 | 2.0 | 3.0 | 0.00 | 0.00 | 0.00 | 44 | 1002.9 |
| 20260503193028 | 51 | 284 | 2.0 | 3.0 | 0.00 | 0.00 | 0.00 | 41 | 1002.8 |
| 20260503192524 | 52 | 284 | 4.0 | 6.0 | 0.00 | 0.00 | 0.00 | 41 | 1003.0 |
| 20260503192020 | 51 | 284 | 1.0 | 3.0 | 0.00 | 0.00 | 0.00 | 42 | 1002.7 |
| 20260503191517 | 51 | 284 | 2.0 | 7.0 | 0.00 | 0.00 | 0.00 | 40 | 1003.1 |
| 20260503191014 | 51 | 284 | 2.0 | 2.0 | 0.00 | 0.00 | 0.00 | 43 | 1003.1 |
| 20260503190510 | 51 | 284 | 2.0 | 6.0 | 0.00 | 0.00 | 0.00 | 45 | 1002.7 |
| 20260503190008 | 50 | 284 | 0.0 | 3.0 | 0.00 | 0.00 | 0.00 | 47 | 1002.8 |
| 20260503185503 | 51 | 284 | 3.0 | 6.0 | 0.00 | 0.00 | 0.00 | 45 | 1002.9 |
| 20260503184958 | 50 | 284 | 3.0 | 10.0 | 0.00 | 0.00 | 0.00 | 46 | 1002.9 |
| 20260503184455 | 51 | 284 | 2.0 | 3.0 | 0.00 | 0.00 | 0.00 | 47 | 1002.8 |
| 20260503183951 | 52 | 284 | 4.0 | 6.0 | 0.00 | 0.00 | 0.00 | 43 | 1002.9 |
| 20260503183448 | 51 | 284 | 1.0 | 4.0 | 0.00 | 0.00 | 0.00 | 48 | 1002.8 |
| 20260503182944 | 52 | 284 | 4.0 | 6.0 | 0.00 | 0.00 | 0.00 | 46 | 1002.9 |
| 20260503182443 | 52 | 284 | 2.0 | 6.0 | 0.00 | 0.00 | 0.00 | 49 | 1002.8 |
| 20260503181941 | 51 | 284 | 2.0 | 6.0 | 0.00 | 0.00 | 0.00 | 48 | 1002.7 |
| 20260503181438 | 51 | 284 | 2.0 | 7.0 | 0.00 | 0.00 | 0.00 | 47 | 1002.6 |
| 20260503180933 | 51 | 284 | 4.0 | 10.0 | 0.00 | 0.00 | 0.00 | 48 | 1002.6 |
| 20260503180432 | 51 | 284 | 4.0 | 9.0 | 0.00 | 0.00 | 0.00 | 48 | 1002.8 |
| 20260503175928 | 51 | 284 | 3.0 | 6.0 | 0.00 | 0.00 | 0.00 | 50 | 1002.5 |
| 20260503175427 | 50 | 284 | 2.0 | 4.0 | 0.00 | 0.00 | 0.00 | 52 | 1003.0 |
| 20260503174922 | 51 | 284 | 4.0 | 4.0 | 0.00 | 0.00 | 0.00 | 49 | 1002.8 |
| 20260503174420 | 50 | 284 | 3.0 | 6.0 | 0.00 | 0.00 | 0.00 | 53 | 1002.7 |
| 20260503173914 | 49 | 284 | 2.0 | 3.0 | 0.00 | 0.00 | 0.00 | 54 | 1002.6 |
| 20260503173411 | 49 | 284 | 2.0 | 9.0 | 0.00 | 0.00 | 0.00 | 55 | 1002.7 |
| 20260503172908 | 50 | 284 | 6.0 | 8.0 | 0.00 | 0.00 | 0.00 | 52 | 1002.8 |
| 20260503172405 | 49 | 284 | 4.0 | 8.0 | 0.00 | 0.00 | 0.00 | 56 | 1002.7 |
| 20260503171901 | 48 | 284 | 4.0 | 6.0 | 0.00 | 0.00 | 0.00 | 56 | 1002.6 |
| 20260503171358 | 49 | 284 | 2.0 | 3.0 | 0.00 | 0.00 | 0.00 | 56 | 1002.9 |
| 20260503170855 | 49 | 284 | 1.0 | 8.0 | 0.00 | 0.00 | 0.00 | 57 | 1002.6 |
| 20260503170352 | 48 | 250 | 2.0 | 4.0 | 0.00 | 0.00 | 0.00 | 58 | 1002.9 |
| 20260503150744 | 43 | 250 | 1.0 | 2.0 | 0.00 | 0.00 | 0.00 | 80 | 1003.9 |
| 20260503150240 | 43 | 250 | 3.0 | 4.0 | 0.00 | 0.00 | 0.00 | 81 | 1003.9 |
| 20260503140204 | 42 | 250 | 1.0 | 2.0 | 0.00 | 0.00 | 0.00 | 84 | 1004.4 |
| 20260503131134 | 41 | 250 | 0.0 | 2.0 | 0.00 | 0.00 | 0.00 | 87 | 1004.9 |
| 20260503130632 | 41 | 250 | 1.0 | 2.0 | 0.00 | 0.00 | 0.00 | 88 | 1004.8 |
| 20260503130129 | 41 | 250 | 0.0 | 3.0 | 0.00 | 0.00 | 0.00 | 87 | 1004.8 |
| 20260503110522 | 40 | 250 | 0.0 | 2.0 | 0.00 | 0.00 | 0.00 | 95 | 1005.4 |
| 20260503090409 | 38 | 250 | 0.0 | 0.0 | 0.00 | 0.00 | 0.00 | 95 | 1006.0 |
| 20260503081335 | 39 | 250 | 0.0 | 0.0 | 0.00 | 0.00 | 0.00 | 95 | 1006.4 |
| 20260503080832 | 39 | 250 | 0.0 | 0.0 | 0.00 | 0.00 | 0.00 | 95 | 1006.3 |
| 20260503080329 | 39 | 250 | 0.0 | 0.0 | 0.00 | 0.00 | 0.00 | 95 | 1006.4 |